N27JY PGUM-RJTT

Flight info

Callsign N27JY
Flight time 3h 9m
Altitude 36000
Route TOESS B586 KAGUN/N0476F380 B586 VASKO UKATA B586 IPRET/N0472F390 B586 SABRI Y873 FITTO Y87 TOPIT Y875 AROSA
Aircraft CL60/M-SBDE1E2E3FGHIJ1J4J5J7M3RWXYZ/LB1V1D1

Departure

Time 2026-04-25 19:27
Airport Antonio B. Won Pat International Airport (PGUM)

Arrival

Time 2026-04-25 22:36
Airport Tokyo Haneda International Airport (RJTT)
Time Latitude Longitude Altitude Speed Heading
2026-04-25 19:09 13.48223 144.80383 288 ft 0 kts 153°
2026-04-25 19:22 13.48221 144.80385 288 ft 2 kts 153°
2026-04-25 19:22 13.48298 144.80337 284 ft 8 kts 273°
2026-04-25 19:23 13.48256 144.80229 280 ft 23 kts 246°
2026-04-25 19:23 13.48132 144.79954 271 ft 30 kts 245°
2026-04-25 19:23 13.48047 144.79752 269 ft 1 kts 291°
2026-04-25 19:24 13.48081 144.79744 270 ft 9 kts 351°
2026-04-25 19:24 13.48175 144.79703 271 ft 18 kts 336°
2026-04-25 19:24 13.48172 144.79478 268 ft 28 kts 245°
2026-04-25 19:25 13.47980 144.79057 259 ft 35 kts 245°
2026-04-25 19:25 13.47869 144.78813 252 ft 38 kts 245°
2026-04-25 19:25 13.47794 144.78630 246 ft 8 kts 211°
2026-04-25 19:26 13.47799 144.78668 246 ft 6 kts 59°
2026-04-25 19:26 13.47830 144.78734 249 ft 32 kts 64°
2026-04-25 19:26 13.48074 144.79263 264 ft 126 kts 65°
2026-04-25 19:26 13.48536 144.80249 616 ft 166 kts 64°
2026-04-25 19:27 13.49082 144.81348 1435 ft 184 kts 63°
2026-04-25 19:27 13.49462 144.82127 2167 ft 190 kts 63°
2026-04-25 19:27 13.50253 144.83780 3625 ft 202 kts 60°
2026-04-25 19:27 13.51169 144.84885 4513 ft 220 kts 36°
2026-04-25 19:28 13.52717 144.85347 5192 ft 251 kts 358°
2026-04-25 19:28 13.54474 144.84973 6188 ft 266 kts 347°
2026-04-25 19:28 13.56280 144.84488 7305 ft 271 kts 347°
2026-04-25 19:28 13.58099 144.84003 8377 ft 275 kts 347°
2026-04-25 19:29 13.59976 144.83522 9414 ft 280 kts 347°
2026-04-25 19:29 13.61853 144.83048 10349 ft 286 kts 347°
2026-04-25 19:29 13.63919 144.82529 10551 ft 320 kts 347°
2026-04-25 19:29 13.66179 144.81963 10974 ft 342 kts 347°
2026-04-25 19:30 13.68529 144.81374 11672 ft 351 kts 347°
2026-04-25 19:30 13.70946 144.80769 12428 ft 358 kts 347°
2026-04-25 19:30 13.73392 144.80159 13196 ft 362 kts 347°
2026-04-25 19:30 13.75849 144.79546 13907 ft 367 kts 347°
2026-04-25 19:31 13.78385 144.78914 14617 ft 372 kts 347°
2026-04-25 19:31 13.80908 144.78285 15309 ft 377 kts 347°
2026-04-25 19:31 13.83485 144.77643 15975 ft 381 kts 347°
2026-04-25 19:31 13.86082 144.76997 16583 ft 386 kts 347°
2026-04-25 19:32 13.88750 144.76334 17189 ft 391 kts 348°
2026-04-25 19:32 13.91424 144.75668 17822 ft 395 kts 348°
2026-04-25 19:32 13.94108 144.75001 18455 ft 398 kts 348°
2026-04-25 19:32 13.95914 144.74551 18875 ft 400 kts 347°
2026-04-25 19:33 13.99598 144.73636 19687 ft 405 kts 348°
2026-04-25 19:33 14.02348 144.72952 20275 ft 408 kts 348°
2026-04-25 19:33 14.05120 144.72263 20840 ft 412 kts 348°
2026-04-25 19:33 14.07919 144.71567 21388 ft 415 kts 348°
2026-04-25 19:34 14.10740 144.70865 21950 ft 418 kts 348°
2026-04-25 19:34 14.13579 144.70158 22466 ft 422 kts 347°
2026-04-25 19:34 14.16453 144.69443 22982 ft 425 kts 348°
2026-04-25 19:34 14.19344 144.68724 23514 ft 427 kts 347°
2026-04-25 19:35 14.22251 144.67999 24018 ft 430 kts 347°
2026-04-25 19:35 14.25201 144.67265 24519 ft 433 kts 347°
2026-04-25 19:35 14.28143 144.66533 24978 ft 436 kts 347°
2026-04-25 19:35 14.31102 144.65796 25443 ft 438 kts 347°
2026-04-25 19:36 14.34084 144.65053 25905 ft 440 kts 347°
2026-04-25 19:36 14.37072 144.64308 26358 ft 442 kts 347°
2026-04-25 19:36 14.40086 144.63556 26781 ft 444 kts 347°
2026-04-25 19:36 14.43154 144.62791 27156 ft 447 kts 347°
2026-04-25 19:37 14.46275 144.62013 27556 ft 450 kts 347°
2026-04-25 19:37 14.49380 144.61238 27974 ft 451 kts 346°
2026-04-25 19:37 14.52467 144.60467 28333 ft 453 kts 346°
2026-04-25 19:37 14.55576 144.59691 28699 ft 455 kts 346°
2026-04-25 19:38 14.58720 144.58907 29039 ft 457 kts 346°
2026-04-25 19:38 14.61859 144.58122 29363 ft 459 kts 346°
2026-04-25 19:38 14.65010 144.57335 29719 ft 460 kts 346°
2026-04-25 19:38 14.68159 144.56547 30142 ft 458 kts 346°
2026-04-25 19:39 14.71254 144.55774 30581 ft 456 kts 347°
2026-04-25 19:39 14.74353 144.54999 31022 ft 454 kts 347°
2026-04-25 19:39 14.77414 144.54233 31442 ft 452 kts 347°
2026-04-25 19:39 14.80488 144.53464 31829 ft 451 kts 347°
2026-04-25 19:40 14.83542 144.52699 32202 ft 449 kts 347°
2026-04-25 19:40 14.86571 144.51941 32548 ft 448 kts 347°
2026-04-25 19:40 14.89636 144.51173 32878 ft 449 kts 347°
2026-04-25 19:40 14.92671 144.50413 33222 ft 449 kts 347°
2026-04-25 19:41 14.95716 144.49651 33561 ft 448 kts 347°
2026-04-25 19:41 14.98763 144.48886 33933 ft 447 kts 347°
2026-04-25 19:41 15.01773 144.48132 34361 ft 445 kts 347°
2026-04-25 19:41 15.02788 144.47878 34495 ft 444 kts 347°
2026-04-25 19:42 15.07788 144.46623 35147 ft 440 kts 347°
2026-04-25 19:42 15.10780 144.45872 35482 ft 439 kts 347°
2026-04-25 19:42 15.13748 144.45126 35793 ft 438 kts 347°
2026-04-25 19:42 15.16734 144.44377 35957 ft 441 kts 347°
2026-04-25 19:43 15.22804 144.42853 35955 ft 450 kts 347°
2026-04-25 19:43 15.28989 144.41298 35969 ft 458 kts 347°
2026-04-25 19:44 15.35265 144.39720 35971 ft 464 kts 347°
2026-04-25 19:44 15.41554 144.38136 35967 ft 465 kts 347°
2026-04-25 19:45 15.47901 144.36539 35968 ft 465 kts 347°
2026-04-25 19:45 15.54227 144.34944 35969 ft 464 kts 347°
2026-04-25 19:46 15.60519 144.33357 35969 ft 464 kts 347°
2026-04-25 19:46 15.66852 144.31760 35968 ft 464 kts 347°
2026-04-25 19:47 15.73157 144.30168 35967 ft 465 kts 347°
2026-04-25 19:47 15.79487 144.28569 35969 ft 465 kts 347°
2026-04-25 19:48 15.85801 144.26973 35967 ft 466 kts 347°
2026-04-25 19:48 15.92120 144.25374 35970 ft 466 kts 347°
2026-04-25 19:49 15.96351 144.24303 35968 ft 466 kts 347°
2026-04-25 19:49 16.04786 144.22166 35969 ft 466 kts 347°
2026-04-25 19:50 16.14275 144.19760 35973 ft 467 kts 347°
2026-04-25 19:51 16.20641 144.18144 35967 ft 468 kts 347°
2026-04-25 19:51 16.26981 144.16534 35973 ft 468 kts 347°
2026-04-25 19:52 16.33319 144.14923 35975 ft 468 kts 347°
2026-04-25 19:52 16.39707 144.13300 35980 ft 468 kts 347°
2026-04-25 19:53 16.46063 144.11682 35980 ft 469 kts 347°
2026-04-25 19:53 16.52436 144.10059 35984 ft 469 kts 347°
2026-04-25 19:54 16.58801 144.08437 35992 ft 470 kts 347°
2026-04-25 19:54 16.65182 144.06810 35996 ft 471 kts 347°
2026-04-25 19:55 16.71588 144.05176 35994 ft 471 kts 347°
2026-04-25 19:55 16.77968 144.03546 36000 ft 471 kts 347°
2026-04-25 19:56 16.84353 144.01914 36000 ft 471 kts 347°
2026-04-25 19:56 16.90753 144.00276 35988 ft 471 kts 347°
2026-04-25 19:57 16.97154 143.98639 35988 ft 472 kts 347°
2026-04-25 19:57 17.03587 143.96991 35990 ft 473 kts 347°
2026-04-25 19:58 17.10036 143.95338 35991 ft 473 kts 347°
2026-04-25 19:58 17.16453 143.93692 35994 ft 473 kts 347°
2026-04-25 19:59 17.22874 143.92044 35992 ft 473 kts 347°
2026-04-25 19:59 17.29311 143.90390 35995 ft 473 kts 347°
2026-04-25 20:00 17.35784 143.88727 35994 ft 473 kts 347°
2026-04-25 20:00 17.42253 143.87062 35997 ft 473 kts 347°
2026-04-25 20:01 17.51898 143.84580 35999 ft 473 kts 347°
2026-04-25 20:01 17.58342 143.82938 35998 ft 473 kts 348°
2026-04-25 20:02 17.64783 143.81389 36001 ft 473 kts 348°
2026-04-25 20:02 17.71252 143.79833 36003 ft 474 kts 348°
2026-04-25 20:03 17.77676 143.78284 36007 ft 475 kts 348°
2026-04-25 20:03 17.84167 143.76718 36008 ft 474 kts 348°
2026-04-25 20:04 17.90596 143.75166 36011 ft 473 kts 348°
2026-04-25 20:04 17.97092 143.73598 36009 ft 474 kts 348°
2026-04-25 20:05 18.03552 143.72035 36010 ft 474 kts 348°
2026-04-25 20:05 18.10044 143.70465 36009 ft 475 kts 348°
2026-04-25 20:06 18.16520 143.68896 36010 ft 475 kts 348°
2026-04-25 20:06 18.22980 143.67331 36009 ft 474 kts 348°
2026-04-25 20:07 18.29434 143.65764 36010 ft 473 kts 348°
2026-04-25 20:07 18.35845 143.64209 36011 ft 473 kts 347°
2026-04-25 20:08 18.42299 143.62640 36010 ft 472 kts 348°
2026-04-25 20:08 18.48796 143.61061 36011 ft 474 kts 347°
2026-04-25 20:09 18.55234 143.59494 36012 ft 475 kts 346°
2026-04-25 20:09 18.61735 143.57912 36017 ft 477 kts 346°
2026-04-25 20:10 18.68287 143.56314 36018 ft 480 kts 346°
2026-04-25 20:10 18.74841 143.54715 36016 ft 481 kts 347°
2026-04-25 20:11 18.81409 143.53113 36021 ft 481 kts 346°
2026-04-25 20:11 18.87992 143.51504 36016 ft 478 kts 346°
2026-04-25 20:12 18.94539 143.49904 36023 ft 476 kts 346°
2026-04-25 20:12 18.98835 143.48853 36016 ft 477 kts 346°
2026-04-25 20:13 19.07522 143.46725 36027 ft 479 kts 346°
2026-04-25 20:13 19.14079 143.45119 36033 ft 480 kts 346°
2026-04-25 20:14 19.20628 143.43512 36034 ft 480 kts 346°
2026-04-25 20:14 19.27150 143.41910 36033 ft 480 kts 346°
2026-04-25 20:15 19.33694 143.40303 36034 ft 480 kts 346°
2026-04-25 20:15 19.40226 143.38696 36035 ft 480 kts 346°
2026-04-25 20:16 19.46750 143.37091 36034 ft 479 kts 346°
2026-04-25 20:16 19.53272 143.35486 36034 ft 479 kts 346°
2026-04-25 20:17 19.59799 143.33876 36036 ft 479 kts 345°
2026-04-25 20:17 19.66328 143.32266 36035 ft 479 kts 345°
2026-04-25 20:18 19.72858 143.30655 36037 ft 480 kts 345°
2026-04-25 20:18 19.79416 143.29034 36036 ft 480 kts 345°
2026-04-25 20:19 19.85910 143.27429 36038 ft 479 kts 345°
2026-04-25 20:19 19.92455 143.25809 36036 ft 480 kts 345°
2026-04-25 20:20 19.98957 143.24199 36036 ft 480 kts 345°
2026-04-25 20:20 20.05475 143.22583 36039 ft 479 kts 345°
2026-04-25 20:21 20.11985 143.20969 36038 ft 480 kts 345°
2026-04-25 20:21 20.18513 143.19348 36038 ft 480 kts 345°
2026-04-25 20:22 20.23961 143.17993 36038 ft 480 kts 345°
2026-04-25 20:22 20.31596 143.16095 36037 ft 481 kts 345°
2026-04-25 20:23 20.38124 143.14470 36039 ft 480 kts 345°
2026-04-25 20:23 20.44664 143.12840 36040 ft 480 kts 345°
2026-04-25 20:24 20.51178 143.11217 36040 ft 480 kts 345°
2026-04-25 20:24 20.57685 143.09593 36044 ft 480 kts 344°
2026-04-25 20:25 20.64195 143.07967 36045 ft 480 kts 345°
2026-04-25 20:25 20.70762 143.06325 36046 ft 480 kts 345°
2026-04-25 20:26 20.77256 143.04700 36044 ft 480 kts 344°
2026-04-25 20:26 20.83813 143.03058 36049 ft 480 kts 344°
2026-04-25 20:27 20.90332 143.01424 36051 ft 480 kts 344°
2026-04-25 20:27 20.96838 142.99791 36049 ft 480 kts 344°
2026-04-25 20:28 21.03400 142.98200 36051 ft 481 kts 345°
2026-04-25 20:28 21.09957 142.96686 36050 ft 482 kts 345°
2026-04-25 20:29 21.16559 142.95160 36048 ft 483 kts 345°
2026-04-25 20:29 21.23132 142.93639 36051 ft 483 kts 345°
2026-04-25 20:30 21.29702 142.92116 36051 ft 483 kts 345°
2026-04-25 20:30 21.36284 142.90590 36050 ft 483 kts 345°
2026-04-25 20:31 21.42888 142.89055 36048 ft 483 kts 345°
2026-04-25 20:31 21.49486 142.87521 36050 ft 483 kts 345°
2026-04-25 20:32 21.56067 142.85989 36049 ft 484 kts 345°
2026-04-25 20:32 21.62645 142.84457 36049 ft 484 kts 345°
2026-04-25 20:33 21.69244 142.82919 36051 ft 484 kts 345°
2026-04-25 20:33 21.74783 142.81627 36050 ft 484 kts 345°
2026-04-25 20:34 21.82498 142.79825 36050 ft 485 kts 345°
2026-04-25 20:34 21.89080 142.78285 36051 ft 485 kts 345°
2026-04-25 20:35 21.95715 142.76732 36052 ft 485 kts 345°
2026-04-25 20:35 22.02336 142.75180 36051 ft 486 kts 345°
2026-04-25 20:36 22.08992 142.73619 36051 ft 486 kts 345°
2026-04-25 20:36 22.15618 142.72064 36052 ft 486 kts 345°
2026-04-25 20:37 22.22210 142.70515 36051 ft 486 kts 345°
2026-04-25 20:37 22.28866 142.68950 36051 ft 487 kts 345°
2026-04-25 20:38 22.35506 142.67386 36052 ft 488 kts 345°
2026-04-25 20:38 22.42191 142.65811 36051 ft 488 kts 345°
2026-04-25 20:39 22.48848 142.64241 36052 ft 489 kts 345°
2026-04-25 20:39 22.54392 142.62932 36052 ft 489 kts 345°
2026-04-25 20:40 22.62172 142.61093 36051 ft 489 kts 345°
2026-04-25 20:40 22.68889 142.59505 36052 ft 490 kts 345°
2026-04-25 20:41 22.75551 142.57927 36052 ft 490 kts 345°
2026-04-25 20:41 22.82251 142.56339 36052 ft 490 kts 345°
2026-04-25 20:42 22.88914 142.54756 36052 ft 490 kts 344°
2026-04-25 20:42 22.95613 142.53166 36052 ft 490 kts 345°
2026-04-25 20:43 23.02373 142.51558 36053 ft 491 kts 345°
2026-04-25 20:43 23.09048 142.49970 36054 ft 491 kts 344°
2026-04-25 20:44 23.15799 142.48361 36058 ft 492 kts 344°
2026-04-25 20:44 23.22488 142.46765 36065 ft 492 kts 344°
2026-04-25 20:45 23.29231 142.45155 36070 ft 492 kts 344°
2026-04-25 20:45 23.35910 142.43558 36072 ft 492 kts 344°
2026-04-25 20:46 23.42632 142.41951 36072 ft 492 kts 344°
2026-04-25 20:46 23.49337 142.40344 36073 ft 491 kts 344°
2026-04-25 20:47 23.56066 142.38731 36072 ft 491 kts 344°
2026-04-25 20:47 23.62779 142.37120 36074 ft 492 kts 344°
2026-04-25 20:48 23.69445 142.35518 36071 ft 492 kts 344°
2026-04-25 20:48 23.76199 142.33893 36072 ft 493 kts 343°
2026-04-25 20:49 23.82935 142.32272 36071 ft 493 kts 343°
2026-04-25 20:49 23.89656 142.30652 36071 ft 492 kts 343°
2026-04-25 20:50 23.96325 142.29042 36072 ft 492 kts 343°
2026-04-25 20:50 24.03043 142.27420 36072 ft 492 kts 343°
2026-04-25 20:51 24.09768 142.25794 36072 ft 491 kts 343°
2026-04-25 20:51 24.16460 142.24173 36072 ft 491 kts 343°
2026-04-25 20:52 24.22059 142.22816 36071 ft 491 kts 343°
2026-04-25 20:52 24.29901 142.20915 36072 ft 492 kts 343°
2026-04-25 20:53 24.36609 142.19286 36072 ft 492 kts 343°
2026-04-25 20:53 24.43302 142.17658 36073 ft 492 kts 343°
2026-04-25 20:54 24.50048 142.16016 36073 ft 492 kts 343°
2026-04-25 20:54 24.56754 142.14381 36072 ft 491 kts 343°
2026-04-25 20:55 24.63459 142.12746 36073 ft 491 kts 343°
2026-04-25 20:55 24.70179 142.11105 36072 ft 491 kts 343°
2026-04-25 20:56 24.76860 142.09471 36072 ft 491 kts 343°
2026-04-25 20:56 24.80247 142.08644 36319 ft 489 kts 343°
2026-04-25 20:56 24.83515 142.07849 36932 ft 481 kts 343°
2026-04-25 20:57 24.86774 142.07057 37630 ft 470 kts 343°
2026-04-25 20:57 24.89966 142.06277 38027 ft 467 kts 343°
2026-04-25 20:57 24.96374 142.04709 38071 ft 475 kts 343°
2026-04-25 20:58 25.02834 142.02983 38073 ft 479 kts 339°
2026-04-25 20:58 25.09295 142.00879 38068 ft 484 kts 339°
2026-04-25 20:59 25.15795 141.98766 38070 ft 485 kts 339°
2026-04-25 20:59 25.22314 141.96648 38068 ft 484 kts 339°
2026-04-25 21:00 25.26625 141.95247 38068 ft 484 kts 339°
2026-04-25 21:01 25.38455 141.91397 38063 ft 484 kts 339°
2026-04-25 21:01 25.44949 141.89282 38062 ft 484 kts 339°
2026-04-25 21:02 25.51412 141.87175 38059 ft 484 kts 339°
2026-04-25 21:02 25.57912 141.85054 38058 ft 484 kts 339°
2026-04-25 21:03 25.64370 141.82945 38061 ft 484 kts 339°
2026-04-25 21:03 25.70888 141.80814 38064 ft 484 kts 339°
2026-04-25 21:04 25.77401 141.78680 38069 ft 484 kts 339°
2026-04-25 21:04 25.83902 141.76550 38068 ft 484 kts 339°
2026-04-25 21:05 25.90337 141.74440 38063 ft 484 kts 339°
2026-04-25 21:05 25.96856 141.72299 38068 ft 483 kts 339°
2026-04-25 21:06 26.02706 141.70378 38065 ft 483 kts 339°
2026-04-25 21:06 26.09254 141.68222 38062 ft 483 kts 339°
2026-04-25 21:07 26.15956 141.66013 38057 ft 483 kts 339°
2026-04-25 21:07 26.22718 141.63780 38041 ft 483 kts 339°
2026-04-25 21:08 26.29440 141.61560 38041 ft 483 kts 339°
2026-04-25 21:08 26.36294 141.59294 38038 ft 483 kts 339°
2026-04-25 21:09 26.46483 141.55917 38036 ft 483 kts 338°
2026-04-25 21:09 26.52932 141.53778 38039 ft 483 kts 339°
2026-04-25 21:10 26.59410 141.51627 38035 ft 482 kts 338°
2026-04-25 21:10 26.65839 141.49487 38038 ft 481 kts 338°
2026-04-25 21:11 26.72280 141.47343 38042 ft 481 kts 338°
2026-04-25 21:11 26.78691 141.45207 38043 ft 481 kts 338°
2026-04-25 21:12 26.85101 141.43066 38040 ft 481 kts 338°
2026-04-25 21:12 26.90480 141.41269 38036 ft 482 kts 338°
2026-04-25 21:13 26.97978 141.38762 38037 ft 482 kts 338°
2026-04-25 21:13 27.04405 141.36609 38038 ft 482 kts 338°
2026-04-25 21:14 27.10975 141.34407 38038 ft 481 kts 338°
2026-04-25 21:14 27.17395 141.32251 38038 ft 481 kts 337°
2026-04-25 21:15 27.23822 141.30090 38033 ft 480 kts 337°
2026-04-25 21:15 27.30223 141.27937 38033 ft 480 kts 337°
2026-04-25 21:16 27.36713 141.25751 38036 ft 481 kts 337°
2026-04-25 21:16 27.43098 141.23596 38033 ft 481 kts 337°
2026-04-25 21:17 27.49596 141.21400 38032 ft 481 kts 337°
2026-04-25 21:17 27.56085 141.19206 38033 ft 481 kts 337°
2026-04-25 21:18 27.62871 141.16908 38033 ft 481 kts 337°
2026-04-25 21:18 27.69700 141.14594 38033 ft 481 kts 337°
2026-04-25 21:19 27.76144 141.12405 38032 ft 481 kts 337°
2026-04-25 21:19 27.82589 141.10216 38030 ft 481 kts 337°
2026-04-25 21:20 27.87955 141.08389 38030 ft 481 kts 337°
2026-04-25 21:20 27.95463 141.05832 38031 ft 481 kts 337°
2026-04-25 21:21 28.01897 141.03636 38031 ft 481 kts 337°
2026-04-25 21:21 28.08354 141.01430 38031 ft 482 kts 336°
2026-04-25 21:22 28.14805 140.99225 38030 ft 481 kts 336°
2026-04-25 21:22 28.21207 140.97032 38031 ft 482 kts 336°
2026-04-25 21:23 28.27652 140.94823 38031 ft 482 kts 336°
2026-04-25 21:23 28.34155 140.92590 38031 ft 481 kts 336°
2026-04-25 21:24 28.40868 140.90283 38031 ft 481 kts 336°
2026-04-25 21:24 28.47319 140.88063 38030 ft 481 kts 336°
2026-04-25 21:25 28.53778 140.85837 38031 ft 481 kts 336°
2026-04-25 21:25 28.60205 140.83618 38030 ft 482 kts 336°
2026-04-25 21:26 28.66630 140.81398 38030 ft 482 kts 336°
2026-04-25 21:26 28.73057 140.79175 38031 ft 482 kts 336°
2026-04-25 21:27 28.79539 140.76930 38031 ft 482 kts 336°
2026-04-25 21:27 28.86016 140.74683 38031 ft 482 kts 335°
2026-04-25 21:28 28.92509 140.72429 38031 ft 482 kts 335°
2026-04-25 21:28 28.98919 140.70198 38032 ft 482 kts 335°
2026-04-25 21:29 29.05373 140.67952 38032 ft 482 kts 335°
2026-04-25 21:29 29.11791 140.65714 38033 ft 481 kts 335°
2026-04-25 21:30 29.18208 140.63474 38037 ft 482 kts 335°
2026-04-25 21:30 29.23722 140.61545 38033 ft 483 kts 335°
2026-04-25 21:31 29.31257 140.58908 38031 ft 483 kts 335°
2026-04-25 21:31 29.37664 140.56662 38033 ft 482 kts 335°
2026-04-25 21:32 29.44118 140.54398 38030 ft 482 kts 334°
2026-04-25 21:32 29.50533 140.52142 38033 ft 482 kts 334°
2026-04-25 21:33 29.56943 140.49887 38031 ft 482 kts 334°
2026-04-25 21:33 29.63391 140.47615 38032 ft 483 kts 334°
2026-04-25 21:34 29.69809 140.45349 38031 ft 483 kts 334°
2026-04-25 21:34 29.76290 140.43060 38032 ft 483 kts 334°
2026-04-25 21:35 29.82715 140.40785 38033 ft 484 kts 334°
2026-04-25 21:35 29.89144 140.38509 38033 ft 484 kts 334°
2026-04-25 21:36 29.95582 140.36224 38033 ft 484 kts 334°
2026-04-25 21:36 30.02079 140.33916 38035 ft 484 kts 333°
2026-04-25 21:37 30.07411 140.32018 38038 ft 484 kts 333°
2026-04-25 21:37 30.14930 140.29338 38038 ft 483 kts 333°
2026-04-25 21:38 30.21394 140.27031 38042 ft 483 kts 333°
2026-04-25 21:38 30.27793 140.24742 38036 ft 484 kts 333°
2026-04-25 21:39 30.34223 140.22441 38048 ft 483 kts 332°
2026-04-25 21:39 30.40668 140.20131 38047 ft 483 kts 332°
2026-04-25 21:40 30.47134 140.17810 38054 ft 482 kts 332°
2026-04-25 21:40 30.53563 140.15500 38056 ft 482 kts 332°
2026-04-25 21:41 30.59987 140.13187 38054 ft 482 kts 332°
2026-04-25 21:41 30.66376 140.10884 38063 ft 481 kts 332°
2026-04-25 21:42 30.72803 140.08565 38060 ft 481 kts 332°
2026-04-25 21:42 30.79166 140.06265 38071 ft 480 kts 332°
2026-04-25 21:43 30.85549 140.03954 38069 ft 481 kts 332°
2026-04-25 21:43 30.91936 140.01639 38066 ft 481 kts 332°
2026-04-25 21:44 30.98344 139.99329 38072 ft 482 kts 333°
2026-04-25 21:44 31.05064 139.97943 38074 ft 496 kts 342°
2026-04-25 21:45 31.08499 139.97440 38069 ft 496 kts 342°
2026-04-25 21:45 31.15358 139.96428 38071 ft 495 kts 342°
2026-04-25 21:46 31.22200 139.95415 38079 ft 495 kts 342°
2026-04-25 21:46 31.29056 139.94397 38082 ft 496 kts 342°
2026-04-25 21:47 31.35886 139.93382 38089 ft 497 kts 341°
2026-04-25 21:47 31.42756 139.92358 38082 ft 499 kts 342°
2026-04-25 21:48 31.49647 139.91332 38091 ft 500 kts 342°
2026-04-25 21:48 31.56556 139.90300 38096 ft 499 kts 341°
2026-04-25 21:49 31.63436 139.89273 38098 ft 498 kts 341°
2026-04-25 21:49 31.70332 139.88240 38102 ft 498 kts 341°
2026-04-25 21:50 31.77205 139.87209 38093 ft 499 kts 341°
2026-04-25 21:50 31.84108 139.86171 38099 ft 499 kts 341°
2026-04-25 21:51 31.91009 139.85133 38105 ft 499 kts 341°
2026-04-25 21:51 31.97914 139.84093 38111 ft 500 kts 341°
2026-04-25 21:52 32.04786 139.83055 38110 ft 501 kts 341°
2026-04-25 21:52 32.11738 139.82005 38117 ft 501 kts 341°
2026-04-25 21:53 32.18632 139.80962 38118 ft 500 kts 341°
2026-04-25 21:53 32.25584 139.79907 38123 ft 502 kts 341°
2026-04-25 21:54 32.32514 139.78854 38126 ft 503 kts 340°
2026-04-25 21:54 32.39477 139.77795 38127 ft 504 kts 341°
2026-04-25 21:55 32.46424 139.76738 38125 ft 504 kts 341°
2026-04-25 21:55 32.53381 139.75676 38135 ft 502 kts 341°
2026-04-25 21:56 32.60332 139.74612 38133 ft 501 kts 341°
2026-04-25 21:56 32.67241 139.73553 38135 ft 502 kts 340°
2026-04-25 21:57 32.74251 139.72647 38147 ft 512 kts 346°
2026-04-25 21:57 32.77851 139.72678 38142 ft 523 kts 352°
2026-04-25 21:57 32.81510 139.73172 38135 ft 534 kts 360°
2026-04-25 21:58 32.88821 139.74936 38148 ft 537 kts
2026-04-25 21:58 32.95845 139.76662 38139 ft 538 kts
2026-04-25 21:59 33.03191 139.78471 38153 ft 538 kts
2026-04-25 21:59 33.10518 139.80278 38079 ft 538 kts
2026-04-25 22:00 33.17841 139.82091 36506 ft 536 kts
2026-04-25 22:00 33.21497 139.82997 35703 ft 533 kts
2026-04-25 22:00 33.25097 139.83891 34886 ft 530 kts
2026-04-25 22:00 33.28709 139.84788 34064 ft 526 kts
2026-04-25 22:01 33.32333 139.85689 33237 ft 523 kts
2026-04-25 22:01 33.35875 139.86569 32456 ft 519 kts
2026-04-25 22:01 33.39409 139.87448 31634 ft 517 kts
2026-04-25 22:01 33.41758 139.88032 31090 ft 515 kts
2026-04-25 22:02 33.46392 139.89188 29995 ft 511 kts
2026-04-25 22:02 33.49905 139.90063 29157 ft 507 kts
2026-04-25 22:02 33.53360 139.90926 28351 ft 504 kts
2026-04-25 22:02 33.56790 139.91782 27528 ft 500 kts
2026-04-25 22:03 33.60166 139.92625 26702 ft 497 kts
2026-04-25 22:03 33.63531 139.93466 25997 ft 489 kts
2026-04-25 22:03 33.66854 139.94299 25346 ft 481 kts
2026-04-25 22:03 33.70099 139.95113 24714 ft 474 kts
2026-04-25 22:04 33.73297 139.95915 24076 ft 466 kts
2026-04-25 22:04 33.76447 139.96706 23476 ft 459 kts
2026-04-25 22:04 33.79554 139.97485 22850 ft 451 kts
2026-04-25 22:04 33.82596 139.98248 22270 ft 443 kts
2026-04-25 22:05 33.85551 139.98990 21693 ft 436 kts
2026-04-25 22:05 33.88528 139.99739 21114 ft 430 kts
2026-04-25 22:05 33.91447 140.00470 20549 ft 429 kts
2026-04-25 22:05 33.94338 140.01195 19986 ft 426 kts
2026-04-25 22:06 33.97216 140.01904 19428 ft 421 kts
2026-04-25 22:06 34.00085 140.02057 18884 ft 406 kts 350°
2026-04-25 22:06 34.02891 140.01695 18335 ft 402 kts 348°
2026-04-25 22:06 34.05681 140.01327 17808 ft 399 kts 348°
2026-04-25 22:07 34.08396 140.00974 17281 ft 395 kts 349°
2026-04-25 22:07 34.10233 140.00732 16930 ft 393 kts 349°
2026-04-25 22:07 34.13853 140.00276 16239 ft 390 kts 352°
2026-04-25 22:07 34.16556 140.00426 15578 ft 393 kts
2026-04-25 22:08 34.19146 140.01421 15133 ft 388 kts 23°
2026-04-25 22:08 34.21402 140.03165 14950 ft 389 kts 38°
2026-04-25 22:08 34.23282 140.05527 14950 ft 393 kts 50°
2026-04-25 22:08 34.24957 140.08174 14853 ft 394 kts 52°
2026-04-25 22:09 34.26629 140.10840 14767 ft 394 kts 52°
2026-04-25 22:09 34.28265 140.13444 14676 ft 393 kts 52°
2026-04-25 22:09 34.29848 140.16135 14585 ft 392 kts 60°
2026-04-25 22:09 34.31006 140.19144 14474 ft 392 kts 67°
2026-04-25 22:10 34.32080 140.22176 14390 ft 390 kts 66°
2026-04-25 22:10 34.33150 140.25182 14287 ft 390 kts 66°
2026-04-25 22:10 34.34215 140.28172 14204 ft 389 kts 66°
2026-04-25 22:10 34.35291 140.31200 14056 ft 390 kts 66°
2026-04-25 22:11 34.36356 140.34195 13836 ft 386 kts 66°
2026-04-25 22:11 34.37416 140.37178 13727 ft 384 kts 66°
2026-04-25 22:11 34.38474 140.40161 13621 ft 384 kts 66°
2026-04-25 22:11 34.39523 140.43118 13522 ft 383 kts 66°
2026-04-25 22:12 34.40568 140.46068 13435 ft 382 kts 66°
2026-04-25 22:12 34.41628 140.49062 13333 ft 383 kts 66°
2026-04-25 22:12 34.42676 140.52023 13241 ft 382 kts 66°
2026-04-25 22:12 34.43369 140.53984 13184 ft 381 kts 66°
2026-04-25 22:13 34.44767 140.57941 13053 ft 379 kts 67°
2026-04-25 22:13 34.45814 140.60907 12966 ft 379 kts 66°
2026-04-25 22:13 34.46862 140.63808 12877 ft 378 kts 63°
2026-04-25 22:13 34.48354 140.66458 12776 ft 377 kts 47°
2026-04-25 22:14 34.50378 140.68454 12674 ft 375 kts 30°
2026-04-25 22:14 34.52777 140.69659 12564 ft 371 kts 12°
2026-04-25 22:14 34.55335 140.70010 12451 ft 367 kts 359°
2026-04-25 22:14 34.57878 140.69995 12364 ft 366 kts 358°
2026-04-25 22:15 34.60436 140.69981 12276 ft 366 kts 358°
2026-04-25 22:15 34.62985 140.69861 12186 ft 363 kts 350°
2026-04-25 22:15 34.65366 140.69000 12074 ft 358 kts 332°
2026-04-25 22:16 34.68931 140.64990 11845 ft 349 kts 297°
2026-04-25 22:16 34.69799 140.62260 11695 ft 344 kts 281°
2026-04-25 22:16 34.70015 140.59416 11631 ft 340 kts 269°
2026-04-25 22:16 34.70001 140.56570 11553 ft 332 kts 269°
2026-04-25 22:17 34.69989 140.53844 11481 ft 312 kts 269°
2026-04-25 22:17 34.69979 140.51285 11410 ft 294 kts 268°
2026-04-25 22:17 34.69968 140.48868 11340 ft 278 kts 268°
2026-04-25 22:17 34.69958 140.46580 11270 ft 263 kts 268°
2026-04-25 22:18 34.69946 140.44386 11207 ft 260 kts 269°
2026-04-25 22:18 34.69934 140.42191 11139 ft 260 kts 269°
2026-04-25 22:18 34.69921 140.40006 11077 ft 261 kts 269°
2026-04-25 22:18 34.70113 140.37830 11019 ft 263 kts 286°
2026-04-25 22:19 34.71002 140.35849 10939 ft 267 kts 310°
2026-04-25 22:19 34.72453 140.34398 10816 ft 269 kts 322°
2026-04-25 22:19 34.73997 140.33101 10707 ft 268 kts 322°
2026-04-25 22:19 34.75531 140.31798 10606 ft 269 kts 322°
2026-04-25 22:20 34.77056 140.30502 10508 ft 269 kts 322°
2026-04-25 22:20 34.78598 140.29192 10405 ft 270 kts 322°
2026-04-25 22:20 34.80142 140.27876 10300 ft 270 kts 323°
2026-04-25 22:20 34.81691 140.26558 10201 ft 269 kts 322°
2026-04-25 22:21 34.83220 140.25255 10095 ft 269 kts 323°
2026-04-25 22:21 34.84749 140.23950 9998 ft 268 kts 323°
2026-04-25 22:21 34.86297 140.22630 9888 ft 267 kts 323°
2026-04-25 22:21 34.87819 140.21330 9781 ft 267 kts 323°
2026-04-25 22:22 34.89339 140.20030 9679 ft 266 kts 322°
2026-04-25 22:22 34.90853 140.18736 9573 ft 266 kts 322°
2026-04-25 22:22 34.92361 140.17445 9474 ft 265 kts 323°
2026-04-25 22:22 34.93869 140.16154 9372 ft 265 kts 323°
2026-04-25 22:23 34.95375 140.14864 9273 ft 264 kts 323°
2026-04-25 22:23 34.96902 140.13556 9173 ft 264 kts 323°
2026-04-25 22:23 34.98410 140.12262 9073 ft 264 kts 323°
2026-04-25 22:23 34.99928 140.10960 8970 ft 265 kts 323°
2026-04-25 22:24 35.01431 140.09670 8873 ft 265 kts 322°
2026-04-25 22:24 35.02948 140.08366 8772 ft 264 kts 323°
2026-04-25 22:24 35.04460 140.07066 8674 ft 264 kts 323°
2026-04-25 22:24 35.05969 140.05771 8569 ft 264 kts 323°
2026-04-25 22:25 35.07483 140.04468 8472 ft 263 kts 323°
2026-04-25 22:25 35.08991 140.03171 8369 ft 262 kts 323°
2026-04-25 22:25 35.10493 140.01877 8272 ft 262 kts 323°
2026-04-25 22:25 35.11980 140.00597 8168 ft 262 kts 323°
2026-04-25 22:26 35.13469 139.99313 8070 ft 261 kts 324°
2026-04-25 22:26 35.14854 139.97888 7978 ft 259 kts 307°
2026-04-25 22:26 35.15710 139.95967 7788 ft 260 kts 291°
2026-04-25 22:26 35.16391 139.93895 7457 ft 260 kts 291°
2026-04-25 22:27 35.17057 139.91888 7237 ft 252 kts 291°
2026-04-25 22:27 35.17714 139.89909 6998 ft 247 kts 291°
2026-04-25 22:27 35.18355 139.87979 6767 ft 242 kts 291°
2026-04-25 22:27 35.18979 139.86096 6535 ft 238 kts 291°
2026-04-25 22:28 35.19598 139.84230 6308 ft 234 kts 291°
2026-04-25 22:28 35.20291 139.82455 6088 ft 228 kts 306°
2026-04-25 22:28 35.21463 139.81190 5850 ft 223 kts 334°
2026-04-25 22:28 35.22927 139.80592 5555 ft 222 kts 347°
2026-04-25 22:29 35.24412 139.80131 5264 ft 220 kts 346°
2026-04-25 22:29 35.25859 139.79674 5025 ft 208 kts 347°
2026-04-25 22:29 35.27245 139.79236 4763 ft 202 kts 347°
2026-04-25 22:30 35.29963 139.78375 4273 ft 196 kts 347°
2026-04-25 22:30 35.31298 139.78062 4031 ft 193 kts
2026-04-25 22:30 35.32531 139.78546 3788 ft 185 kts 34°
2026-04-25 22:30 35.33252 139.79111 3665 ft 185 kts 36°
2026-04-25 22:31 35.34708 139.80252 3336 ft 185 kts 36°
2026-04-25 22:31 35.35787 139.81090 3129 ft 184 kts 36°
2026-04-25 22:31 35.36867 139.81929 2894 ft 182 kts 35°
2026-04-25 22:31 35.37931 139.82754 2689 ft 177 kts 35°
2026-04-25 22:32 35.38970 139.83562 2470 ft 173 kts 36°
2026-04-25 22:32 35.39970 139.84338 2265 ft 168 kts 35°
2026-04-25 22:32 35.40987 139.85048 2055 ft 167 kts 22°
2026-04-25 22:32 35.42123 139.85188 1874 ft 158 kts
2026-04-25 22:33 35.43201 139.85173 1699 ft 154 kts
2026-04-25 22:33 35.44265 139.85097 1484 ft 153 kts 351°
2026-04-25 22:33 35.45261 139.84601 1469 ft 156 kts 334°
2026-04-25 22:33 35.46171 139.83928 1469 ft 153 kts 330°
2026-04-25 22:34 35.47082 139.83238 1464 ft 154 kts 332°
2026-04-25 22:34 35.48020 139.82559 1322 ft 156 kts 332°
2026-04-25 22:34 35.48949 139.81900 1116 ft 153 kts 332°
2026-04-25 22:34 35.49853 139.81262 928 ft 144 kts 333°
2026-04-25 22:35 35.50702 139.80661 733 ft 138 kts 333°
2026-04-25 22:35 35.51530 139.80075 546 ft 135 kts 332°
2026-04-25 22:35 35.52336 139.79504 371 ft 133 kts 332°
2026-04-25 22:35 35.53132 139.78940 196 ft 131 kts 332°
2026-04-25 22:36 35.53928 139.78378 30 ft 126 kts 333°
2026-04-25 22:36 35.54590 139.77911 17 ft 87 kts 333°
2026-04-25 22:36 35.55063 139.77577 28 ft 71 kts 328°
2026-04-25 22:36 35.55368 139.77354 29 ft 44 kts 325°
2026-04-25 22:37 35.55497 139.77182 28 ft 24 kts 301°
2026-04-25 22:37 35.55559 139.77049 25 ft 12 kts 300°
2026-04-25 22:37 35.55573 139.76959 23 ft 6 kts 307°
2026-04-25 22:37 35.55621 139.76914 22 ft 11 kts 320°
2026-04-25 22:38 35.55675 139.76827 21 ft 15 kts 306°
2026-04-25 22:38 35.55748 139.76703 19 ft 20 kts 305°
2026-04-25 22:38 35.55835 139.76546 18 ft 23 kts 306°
2026-04-25 22:38 35.55921 139.76395 20 ft 14 kts 304°
2026-04-25 22:39 35.55954 139.76300 22 ft 9 kts 258°
2026-04-25 22:39 35.55910 139.76239 24 ft 10 kts 214°
2026-04-25 22:39 35.55843 139.76184 27 ft 12 kts 214°
2026-04-25 22:39 35.55828 139.76083 28 ft 15 kts 315°
2026-04-25 22:40 35.55919 139.76006 30 ft 17 kts 325°
2026-04-25 22:40 35.55992 139.75960 30 ft 2 kts 30°
2026-04-25 22:40 35.56010 139.75986 31 ft 5 kts 58°
2026-04-25 22:40 35.56028 139.76018 29 ft 0 kts 56°